Weather History for KGTF - January, 2014

Change the Weather History Date:

Friday, January 3, 2014

  Actual Average Record
Temperature  
Mean Temperature 35 °F 24 °F  
Max Temperature 48 °F 35 °F 57 °F (2001)
Min Temperature 22 °F 14 °F -33 °F (1950)
Degree Days  
Heating Degree Days 30 41  
Month to date heating degree days 90 123  
Since 1 July heating degree days 3244 3340  
Cooling Degree Days 0 0  
Month to date cooling degree days 0 0  
Year to date cooling degree days 0 0  
Moisture  
Dew Point 24 °F    
Average Humidity 70    
Maximum Humidity 100    
Minimum Humidity 40    
Precipitation  
Precipitation 0.07 in 0.02 in 0.62 in (1966)
Month to date precipitation 0.07 0.05  
Year to date precipitation 0.07 0.05  
Snow  
Snow 1.60 in 0.30 in 7.20 in (1966)
Month to date snowfall 1.6 0.9  
Since 1 July snowfall 24.5 24.1  
Snow Depth 0.00 in    
Sea Level Pressure  
Sea Level Pressure 29.82 in    
Wind  
Wind Speed 18 mph (WNW)    
Max Wind Speed 43 mph    
Max Gust Speed 54 mph    
Visibility 5 miles    
Events Snow    
T = Trace of Precipitation, MM = Missing Value Source: NWS Daily Summary

Daily Weather History Graph

Daily Weather History Graph

Search for Another Location

Airport or City:

Trip Planner

Search our weather history database for the weather conditions in past years. The results will help you decide how hot, cold, wet, or windy it might be!

Date:

Astronomy

Jan. 03, 2014 Rise Set
Actual Time 8:13 AM MST 4:47 PM MST
Civil Twilight 7:37 AM MST 5:22 PM MST
Nautical Twilight 6:58 AM MST 6:01 PM MST
Astronomical Twilight 6:21 AM MST 6:39 PM MST
Moon 9:28 AM MST (1/3) 8:15 PM MST (1/3)
Length of Visible Light 9h 45m
Length of Day
8h 34m
Waxing Crescent, 8% of the Moon is Illuminated
Jan 3
Waxing Crescent
Jan 7
First Quarter
Jan 15
Full
Jan 23
Last Quarter
Jan 30
New

Hourly Weather History & Observations

Time (MST) Temp. Windchill Dew Point Humidity Pressure Visibility Wind Dir Wind Speed Gust Speed Precip Events Conditions
12:53 AM 46.9 °F - 28.9 °F 50% 29.58 in 10.0 mi SW 20.7 mph 26.5 mph N/A   Clear
1:53 AM 48.0 °F - 30.0 °F 50% 29.52 in 10.0 mi SW 23.0 mph 40.3 mph N/A   Clear
2:53 AM 46.0 °F 38.8 °F 30.0 °F 54% 29.51 in 10.0 mi SW 18.4 mph 26.5 mph N/A   Partly Cloudy
3:53 AM 46.9 °F - 30.0 °F 52% 29.47 in 10.0 mi SW 23.0 mph 33.4 mph N/A   Clear
4:53 AM 46.9 °F - 30.9 °F 54% 29.42 in 10.0 mi SW 35.7 mph 46.0 mph N/A   Clear
5:53 AM 45.0 °F 34.3 °F 32.0 °F 60% 29.42 in 10.0 mi WSW 36.8 mph 49.5 mph N/A   Clear
6:53 AM 42.1 °F 32.1 °F 30.9 °F 65% 29.46 in 10.0 mi WSW 25.3 mph 40.3 mph N/A   Partly Cloudy
7:53 AM 39.0 °F 29.9 °F 30.0 °F 70% 29.48 in 10.0 mi WSW 17.3 mph - N/A   Mostly Cloudy
8:53 AM 37.9 °F 26.3 °F 27.0 °F 65% 29.52 in 10.0 mi West 26.5 mph 35.7 mph N/A   Partly Cloudy
9:53 AM 39.9 °F 28.6 °F 21.0 °F 47% 29.52 in 10.0 mi WSW 28.8 mph 39.1 mph N/A   Clear
10:53 AM 39.9 °F 28.2 °F 18.0 °F 41% 29.57 in 10.0 mi West 31.1 mph 44.9 mph N/A   Overcast
11:53 AM 33.1 °F 20.1 °F 26.1 °F 75% 29.68 in 8.0 mi NW 25.3 mph 38.0 mph 0.00 in   Overcast
12:49 PM 28.4 °F 12.3 °F 23.0 °F 80% 29.68 in 10.0 mi NW 32.2 mph 42.6 mph 0.00 in   Overcast
12:53 PM 28.9 °F 14.8 °F 23.0 °F 78% 29.75 in 6.0 mi NNW 24.2 mph 42.6 mph 0.00 in Snow Light Snow
1:05 PM 28.4 °F 13.0 °F 23.0 °F 80% 29.69 in 2.0 mi NNW 28.8 mph 41.4 mph 0.00 in Snow Light Snow
1:28 PM 26.6 °F 11.1 °F 23.0 °F 86% 29.73 in 5.0 mi NNW 26.5 mph 36.8 mph 0.00 in Snow Light Snow
1:53 PM 28.0 °F 14.6 °F 23.0 °F 81% 29.83 in 10.0 mi NNW 20.7 mph 29.9 mph 0.00 in   Overcast
2:15 PM 28.4 °F 15.8 °F 23.0 °F 80% 29.78 in 4.0 mi North 18.4 mph 27.6 mph 0.00 in Snow Light Snow
2:29 PM 26.6 °F 13.8 °F 23.0 °F 86% 29.79 in 1.8 mi NNW 17.3 mph 27.6 mph 0.00 in Snow Light Snow
2:34 PM 26.6 °F 13.4 °F 24.8 °F 93% 29.79 in 1.8 mi NNW 18.4 mph 27.6 mph 0.00 in Snow Light Snow
2:36 PM 26.6 °F 13.8 °F 24.8 °F 93% 29.79 in 2.0 mi NNW 17.3 mph - 0.00 in Snow Light Snow
2:46 PM 26.6 °F 15.2 °F 24.8 °F 93% 29.80 in 1.5 mi NNW 13.8 mph - 0.00 in Snow Light Snow
2:53 PM 27.0 °F 16.1 °F 25.0 °F 92% 29.90 in 2.0 mi North 12.7 mph - 0.00 in Snow Light Snow
3:03 PM 26.6 °F 13.8 °F 24.8 °F 93% 29.82 in 1.5 mi NNW 17.3 mph - 0.00 in Snow Light Snow
3:25 PM 26.6 °F 16.2 °F 24.8 °F 93% 29.84 in 2.0 mi NNW 11.5 mph - 0.00 in Snow Light Snow
3:44 PM 26.6 °F 15.7 °F 23.0 °F 86% 29.85 in 2.5 mi North 12.7 mph - 0.00 in Snow Light Snow
3:53 PM 26.1 °F 15.6 °F 24.1 °F 92% 29.95 in 2.5 mi North 11.5 mph - 0.00 in Snow Light Snow
4:01 PM 26.6 °F 16.8 °F 24.8 °F 93% 29.86 in 10.0 mi North 10.4 mph - N/A   Overcast
4:16 PM 24.8 °F 12.9 °F 21.2 °F 86% 29.88 in 9.0 mi North 13.8 mph - 0.00 in   Overcast
4:29 PM 24.8 °F 14.6 °F 21.2 °F 86% 29.89 in 10.0 mi NNE 10.4 mph - 0.00 in   Overcast
4:48 PM 24.8 °F 15.3 °F 21.2 °F 86% 29.89 in 7.0 mi NNE 9.2 mph - 0.00 in Snow Light Snow
4:53 PM 25.0 °F 16.3 °F 21.9 °F 88% 29.99 in 5.0 mi NNE 8.1 mph - 0.00 in Snow Light Snow
5:04 PM 24.8 °F 15.3 °F 21.2 °F 86% 29.90 in 2.0 mi North 9.2 mph - 0.00 in Snow Light Snow
5:46 PM 24.8 °F 19.1 °F 21.2 °F 86% 29.92 in 1.2 mi North 4.6 mph - 0.00 in Snow Light Snow
5:53 PM 24.1 °F 17.0 °F 23.0 °F 96% 30.02 in 1.0 mi North 5.8 mph - 0.00 in Snow Light Snow
6:08 PM 24.8 °F 20.5 °F 23.0 °F 93% 29.93 in 1.8 mi NNW 3.5 mph - 0.01 in Snow Light Snow
6:19 PM 24.8 °F - 23.0 °F 93% 29.93 in 1.0 mi Calm Calm - 0.01 in Snow Light Snow
6:33 PM 24.8 °F 20.5 °F 23.0 °F 93% 29.93 in 1.0 mi North 3.5 mph - 0.02 in Snow Light Snow
6:53 PM 24.1 °F - 23.0 °F 96% 30.05 in 1.0 mi Calm Calm - 0.03 in Snow Light Snow
7:19 PM 24.8 °F - 23.0 °F 93% 29.95 in 1.0 mi Calm Calm - 0.00 in Snow Light Snow
7:30 PM 24.8 °F - 23.0 °F 93% 29.95 in 2.0 mi Calm Calm - 0.00 in Snow Light Snow
7:45 PM 24.8 °F - 23.0 °F 93% 29.95 in 1.8 mi Calm Calm - 0.01 in Snow Light Snow
7:53 PM 24.1 °F - 23.0 °F 96% 30.07 in 1.8 mi Calm Calm - 0.01 in Snow Light Snow
8:13 PM 24.8 °F 20.5 °F 23.0 °F 93% 29.95 in 1.2 mi South 3.5 mph - 0.01 in Snow Light Snow
8:53 PM 24.1 °F 18.2 °F 21.9 °F 91% 30.08 in 1.0 mi SSW 4.6 mph - 0.02 in Snow Light Snow
9:18 PM 23.0 °F 17.0 °F 21.2 °F 93% 29.95 in 1.5 mi SW 4.6 mph - 0.01 in Snow Light Snow
9:43 PM 21.2 °F 12.6 °F 21.2 °F 100% 29.96 in 1.5 mi SSW 6.9 mph - 0.01 in Snow Light Snow
9:53 PM 21.9 °F 14.5 °F 21.0 °F 96% 30.09 in 1.5 mi SW 5.8 mph - 0.01 in Snow Light Snow
10:12 PM 21.2 °F 12.6 °F 21.2 °F 100% 29.96 in 1.5 mi WSW 6.9 mph - 0.00 in Snow Light Snow
10:30 PM 21.2 °F 12.6 °F 21.2 °F 100% 29.97 in 4.0 mi WSW 6.9 mph - 0.00 in Snow Light Snow
10:53 PM 21.9 °F 14.5 °F 21.9 °F 100% 30.09 in 7.0 mi WSW 5.8 mph - 0.00 in Snow Light Snow
11:21 PM 23.0 °F 14.7 °F 21.2 °F 93% 29.97 in 6.0 mi SW 6.9 mph - 0.00 in Snow Light Snow
11:48 PM 23.0 °F 12.4 °F 21.2 °F 93% 29.98 in 5.0 mi NW 10.4 mph - 0.00 in Snow Light Snow
11:53 PM 21.9 °F 11.7 °F 21.0 °F 96% 30.12 in 4.0 mi NW 9.2 mph - 0.00 in Snow Light Snow